マクノート-ハートレー彗星

C/1999 T1 ( McNaught-Hartley )

English version
Home page
Updated on November 14, 2001

---------------------------------------------------------------------

・ プロフィール

発見日 1999年10月7日
発見光度 15等
発見者 Robert H. McNaught, Malcolm Hartley (Siding Spring Observatory)

・ 軌道要素

   The following improved orbital elements by Kenji Muraoka, 
  are from 357 observations  1999 Oct. 7  to  2001 Apr. 1, 
  including 9 Planets, Moon and 5 minor planets perturbations 
  and non-gravitational effect of style II.
   The mean residual is +/- 0.62 arc seconds.
 
      Epoch  =  2000 Dec.  2.0  TT       JDT = 2451880.5
          T  =  2000 Dec. 13.47107       +/- 0.00015 (m.e.) TT
       Peri. =  344.75707                +/- 0.00014
       Node  =  182.48248                +/- 0.00004   (2000.0)
       Incl. =   79.97493                +/- 0.00003
          q  =    1.1716855              +/- 0.0000021 AU
          e  =    0.9997929              +/- 0.0000033
        1/a  =   +0.0001768              +/- 0.0000028 1/AU
         A1  =   +3.87                   +/- 0.09
         A2  =   -1.2765                 +/- 0.0657
  orig. 1/a  =   +0.0011144 

・ 星図

・ 光度変化

        m1 = 6.2 + 5 logΔ +  9.0 log r  [   ,  0]  (              〜2000年12月13日)
        m1 = 6.1 + 5 logΔ + 10.0 log r  [  0,230]  (2000年12月13日〜2001年 7月31日)
        m1 = 8.0 + 5 logΔ + 10.0 log r  [230,   ]  (2001年 7月31日〜              )

---------------------------------------------------------------------

軌道要素は村岡健治氏の計算によるものです。
星図は StellaNavigator Ver.2.0 for Windows (アストロアーツ 編著 / アスキー出版局刊) で作成したものです。
光度グラフはComet for Windowsで作成したものです。

---------------------------------------------------------------------

Copyright(C) Seiichi Yoshida (comet@aerith.net). All rights reserved.